GW4151 Weather Reports


Display with metric or nautical units.
time (UTC)temp
F
wind
direction
speed
MPH
gust
MPH
rain 1hr
in
rain 24hr
in
rain mn
in
humidity
%
barometer
mb
20260903131847 77 196 0.0 3.0 0.00 0.16 0.16 97 993.4
20260903130346 76 182 1.0 2.0 0.00 0.16 0.16 99 993.5
20260903124845 75 182 0.0 1.0 0.00 0.16 0.16 99 993.4
20260903123340 75 162 0.0 0.0 0.00 0.16 0.16 99 993.5
20260903121839 74 190 1.0 2.0 0.00 0.16 0.16 99 993.7
20260903120334 74 189 0.0 1.0 0.00 0.16 0.16 99 993.8
20260903114833 74 192 0.0 2.0 0.00 0.16 0.16 99 993.7
20260903113332 74 191 2.0 2.0 0.00 0.16 0.16 99 993.7
20260903111828 74 155 0.0 1.0 0.73 0.16 0.16 99 993.7
20260903110326 72 164 0.0 0.0 0.00 0.00 0.00 99 993.6
20260903104826 71 164 0.0 0.0 0.00 0.00 0.00 99 993.7
20260903103325 72 167 0.0 0.0 0.00 0.00 0.00 99 993.5
20260903101820 71 165 0.0 0.0 0.00 0.00 0.00 99 993.4
20260903100317 72 167 0.0 0.0 0.00 0.00 0.00 99 993.6
20260903094816 72 168 0.0 0.0 0.00 0.00 0.00 99 993.6
20260903093313 72 178 0.0 0.0 0.00 0.00 0.00 99 993.5
20260903091813 71 169 0.0 0.0 0.00 0.00 0.00 99 993.6
20260903090308 72 170 0.0 0.0 0.00 0.00 0.00 99 993.7
20260903084805 72 172 0.0 0.0 0.00 0.00 0.00 99 993.5
20260903083301 72 173 0.0 0.0 0.00 0.00 0.00 99 993.3
20260903081756 72 179 0.0 0.0 0.00 0.00 0.00 99 993.5
20260903080251 72 181 0.0 0.0 0.00 0.00 0.00 99 993.5
20260903074750 72 183 0.0 0.0 0.00 0.00 0.00 99 993.6
20260903073248 73 165 0.0 0.0 0.00 0.00 0.00 99 993.3
20260903071749 72 170 0.0 0.0 0.00 0.00 0.00 99 993.5
20260903070245 73 170 0.0 0.0 0.00 0.00 0.00 99 993.4
20260903064744 72 170 0.0 0.0 0.00 0.00 0.00 99 993.3
20260903063243 73 180 0.0 0.0 0.00 0.00 0.00 99 993.4
20260903061740 73 174 0.0 0.0 0.00 0.00 0.00 99 993.2
20260903060235 73 234 0.0 0.0 0.00 0.00 0.00 99 993.4
20260903054732 73 172 0.0 0.0 0.00 0.00 0.00 99 993.3
20260903053230 73 172 0.0 0.0 0.00 0.00 0.00 99 993.2
20260903051728 73 172 0.0 0.0 0.00 0.00 0.00 99 993.1
20260903050224 74 171 0.0 0.0 0.00 0.00 0.00 98 993.2
20260903044723 73 196 0.0 0.0 0.00 0.00 0.00 98 993.0
20260903043220 74 92 0.0 0.0 0.00 0.00 0.00 98 992.9
20260903041717 74 92 0.0 0.0 0.00 0.00 0.00 98 993.0
20260903040213 74 92 0.0 0.0 0.00 0.00 0.00 98 992.9
20260903034710 75 92 0.0 0.0 0.00 0.00 0.00 97 992.9
20260903033207 75 92 0.0 0.0 0.00 0.00 0.00 97 992.8
20260903031705 75 92 0.0 0.0 0.00 0.00 0.00 97 993.2
20260903030202 76 327 1.0 2.0 0.00 0.00 0.00 94 993.0
20260903024700 76 167 0.0 1.0 0.00 0.00 0.00 93 993.0
20260903023155 77 166 0.0 1.0 0.00 0.00 0.00 91 992.9
20260903021655 77 186 0.0 1.0 0.00 0.00 0.00 91 993.0
20260903020150 78 162 0.0 1.0 0.00 0.00 0.00 90 992.5
20260903014648 79 235 1.0 1.0 0.00 0.00 0.00 87 993.0
20260903013148 79 199 0.0 0.0 0.00 0.00 0.00 85 992.8
20260903011646 79 239 1.0 1.0 0.00 0.00 0.00 85 992.6
20260903010146 81 308 2.0 2.0 0.00 0.00 0.00 83 992.3
20260903004642 80 196 0.0 0.0 0.00 0.00 0.00 83 992.2
20260903003140 81 240 1.0 1.0 0.00 0.00 0.00 82 992.3
20260903001636 82 190 2.0 4.0 0.00 0.00 0.00 79 992.1
20260903000131 82 251 3.0 4.0 0.00 0.00 0.00 79 992.3
20260902234631 83 223 4.0 4.0 0.00 0.00 0.00 78 992.1
20260902233131 84 194 2.0 7.0 0.00 0.00 0.00 77 992.4
20260902231630 84 241 2.0 4.0 0.00 0.00 0.00 76 992.3
20260902230130 84 290 4.0 8.0 0.00 0.00 0.00 75 992.4
20260902224629 85 224 2.0 6.0 0.00 0.00 0.00 73 992.5
20260902223126 87 266 4.0 8.0 0.00 0.00 0.00 71 992.4
20260902221624 86 233 3.0 8.0 0.00 0.00 0.00 70 992.6
20260902220121 88 287 2.0 6.0 0.00 0.00 0.00 68 992.5
20260902214619 88 223 3.0 9.0 0.00 0.00 0.00 65 992.5
20260902213118 89 211 6.0 9.0 0.00 0.00 0.00 63 992.2
20260902211618 89 173 6.0 9.0 0.00 0.00 0.00 64 992.5
20260902210114 89 219 4.0 6.0 0.00 0.00 0.00 64 992.5
20260902204614 90 247 3.0 8.0 0.00 0.00 0.00 61 992.7
20260902203110 89 268 7.0 9.0 0.00 0.00 0.00 61 992.6
20260902201609 90 237 4.0 11.0 0.00 0.00 0.00 60 992.9
20260902200106 93 215 3.0 7.0 0.00 0.00 0.00 57 992.6
20260902194605 93 259 5.0 9.0 0.00 0.00 0.00 57 992.5
20260902193102 91 196 3.0 6.0 0.00 0.00 0.00 63 992.9
20260902191601 92 267 4.0 6.0 0.00 0.00 0.00 60 993.0
20260902190058 91 206 5.0 8.0 0.00 0.00 0.00 62 993.3
20260902184556 90 204 4.0 8.0 0.00 0.00 0.00 63 992.9
20260902183056 91 219 5.0 10.0 0.00 0.00 0.00 63 992.8
20260902181556 90 203 4.0 8.0 0.00 0.00 0.00 65 993.1
20260902180051 90 270 0.0 6.0 0.00 0.00 0.00 67 993.5
20260902174548 90 192 2.0 7.0 0.00 0.00 0.00 67 993.6
20260902173044 91 154 2.0 6.0 0.00 0.00 0.00 68 993.7
20260902171541 89 196 3.0 6.0 0.00 0.00 0.00 71 994.1
20260902170039 90 206 4.0 4.0 0.00 0.00 0.00 68 994.1
20260902164534 89 213 2.0 3.0 0.00 0.00 0.00 72 994.1
20260902163033 87 229 2.0 4.0 0.00 0.00 0.00 75 994.2
20260902161529 87 91 4.0 7.0 0.00 0.00 0.00 76 994.0
20260902160027 86 165 2.0 3.0 0.00 0.00 0.00 78 994.1
20260902154526 86 122 2.0 3.0 0.00 0.00 0.00 77 994.0
20260902153027 84 155 2.0 3.0 0.00 0.00 0.00 77 994.3
20260902151526 86 142 2.0 6.0 0.00 0.00 0.00 76 994.1
20260902150021 84 178 1.0 1.0 0.00 0.00 0.00 79 994.2
20260902144519 83 256 3.0 6.0 0.00 0.00 0.00 80 994.5
20260902143016 82 198 2.0 3.0 0.00 0.00 0.00 81 994.3
20260902141512 82 231 4.0 6.0 0.00 0.00 0.00 84 994.5
20260902140009 81 35 2.0 3.0 0.00 0.00 0.00 86 994.7
20260902134505 80 176 2.0 7.0 0.00 0.00 0.00 89 994.9
20260902133001 81 274 3.0 6.0 0.00 0.00 0.00 86 994.6